����������;��������(kVARh)
2016-03-21 00:00;0,1
2016-03-21 00:15;1,5
2016-03-21 00:30;5,5
2016-03-21 00:45;15,3
2016-03-21 01:00;24,15
2016-03-21 01:15;24,05
2016-03-21 01:30;9,95
2016-03-21 01:45;8,15
2016-03-21 02:00;8,6
2016-03-21 02:15;5,2
2016-03-21 02:30;6,8
2016-03-21 02:45;6,7
2016-03-21 03:00;8,35
2016-03-21 03:15;6,95
2016-03-21 03:30;8,25
2016-03-21 03:45;8,85
2016-03-21 04:00;9,1
2016-03-21 04:15;8,75
2016-03-21 04:30;7,15
2016-03-21 04:45;7,8
2016-03-21 05:00;6,05
2016-03-21 05:15;7,8
2016-03-21 05:30;5,4
2016-03-21 05:45;5,35
2016-03-21 06:00;7,2
2016-03-21 06:15;7,45
2016-03-21 06:30;8,2
2016-03-21 06:45;7,5
2016-03-21 07:00;9,75
2016-03-21 07:15;9,65
2016-03-21 07:30;10,1
2016-03-21 07:45;16,65
2016-03-21 08:00;18,8
2016-03-21 08:15;18,4
2016-03-21 08:30;20,5
2016-03-21 08:45;24,4
2016-03-21 09:00;29,7
2016-03-21 09:15;34,25
2016-03-21 09:30;33,5
2016-03-21 09:45;42,1
2016-03-21 10:00;27,35
2016-03-21 10:15;31,8
2016-03-21 10:30;28,25
2016-03-21 10:45;40,3
2016-03-21 11:00;40,95
2016-03-21 11:15;35,75
2016-03-21 11:30;37,85
2016-03-21 11:45;48,15
2016-03-21 12:00;47,95
2016-03-21 12:15;45,6
2016-03-21 12:30;47,7
2016-03-21 12:45;53,35
2016-03-21 13:00;53,05
2016-03-21 13:15;47,3
2016-03-21 13:30;48,25
2016-03-21 13:45;52,25
2016-03-21 14:00;52,95
2016-03-21 14:15;45
2016-03-21 14:30;42,95
2016-03-21 14:45;53,5
2016-03-21 15:00;49,85
2016-03-21 15:15;48,95
2016-03-21 15:30;44,05
2016-03-21 15:45;43,95
2016-03-21 16:00;45,7
2016-03-21 16:15;40,35
2016-03-21 16:30;35,6
2016-03-21 16:45;36,75
2016-03-21 17:00;30,3
2016-03-21 17:15;32,75
2016-03-21 17:30;29,3
2016-03-21 17:45;29,15
2016-03-21 18:00;32,3
2016-03-21 18:15;38,65
2016-03-21 18:30;36,8
2016-03-21 18:45;36,75
2016-03-21 19:00;33,95
2016-03-21 19:15;22,75
2016-03-21 19:30;18,4
2016-03-21 19:45;16,9
2016-03-21 20:00;15,15
2016-03-21 20:15;15,55
2016-03-21 20:30;18,45
2016-03-21 20:45;17,7
2016-03-21 21:00;17,9
2016-03-21 21:15;16,35
2016-03-21 21:30;21,3
2016-03-21 21:45;16,4
2016-03-21 22:00;9,1
2016-03-21 22:15;2,5
2016-03-21 22:30;0,25
2016-03-21 22:45;0
2016-03-21 23:00;0,05
2016-03-21 23:15;0
2016-03-21 23:30;0
2016-03-21 23:45;0
2016-03-22 00:00;0
2016-03-22 00:15;0
2016-03-22 00:30;0
2016-03-22 00:45;0
2016-03-22 01:00;0
2016-03-22 01:15;7,5
2016-03-22 01:30;9,35
2016-03-22 01:45;2,9
2016-03-22 02:00;0,45
2016-03-22 02:15;0,35
2016-03-22 02:30;0,35
2016-03-22 02:45;0,6
2016-03-22 03:00;1,85
2016-03-22 03:15;0,95
2016-03-22 03:30;4,3
2016-03-22 03:45;5,2
2016-03-22 04:00;3,35
2016-03-22 04:15;4,35
2016-03-22 04:30;3,1
2016-03-22 04:45;3,75
2016-03-22 05:00;2,1
2016-03-22 05:15;0,55
2016-03-22 05:30;1,1
2016-03-22 05:45;0,55
2016-03-22 06:00;0,65
2016-03-22 06:15;7,15
2016-03-22 06:30;7,95
2016-03-22 06:45;10,35
2016-03-22 07:00;4,35
2016-03-22 07:15;5
2016-03-22 07:30;3,1
2016-03-22 07:45;4,4
2016-03-22 08:00;16,5
2016-03-22 08:15;13,8
2016-03-22 08:30;10,1
2016-03-22 08:45;6,9
2016-03-22 09:00;17,95
2016-03-22 09:15;19,95
2016-03-22 09:30;24,2
2016-03-22 09:45;26,7
2016-03-22 10:00;28,85
2016-03-22 10:15;26
2016-03-22 10:30;30,6
2016-03-22 10:45;30,05
2016-03-22 11:00;29,85
2016-03-22 11:15;26,95
2016-03-22 11:30;32,75
2016-03-22 11:45;27,55
2016-03-22 12:00;30,2
2016-03-22 12:15;27,3
2016-03-22 12:30;31,4
2016-03-22 12:45;28,7
2016-03-22 13:00;31,05
2016-03-22 13:15;27,75
2016-03-22 13:30;31,2
2016-03-22 13:45;32
2016-03-22 14:00;28,1
2016-03-22 14:15;33,25
2016-03-22 14:30;30,7
2016-03-22 14:45;36,75
2016-03-22 15:00;28,6
2016-03-22 15:15;30,3
2016-03-22 15:30;23,85
2016-03-22 15:45;27,65
2016-03-22 16:00;27,35
2016-03-22 16:15;26,45
2016-03-22 16:30;25,8
2016-03-22 16:45;24,8
2016-03-22 17:00;21,5
2016-03-22 17:15;18,6
2016-03-22 17:30;16,1
2016-03-22 17:45;16,45
2016-03-22 18:00;16,05
2016-03-22 18:15;12,7
2016-03-22 18:30;17,3
2016-03-22 18:45;17,8
2016-03-22 19:00;22,4
2016-03-22 19:15;20,6
2016-03-22 19:30;17,1
2016-03-22 19:45;15,15
2016-03-22 20:00;18,85
2016-03-22 20:15;19,9
2016-03-22 20:30;13,2
2016-03-22 20:45;13,9
2016-03-22 21:00;13,9
2016-03-22 21:15;14,65
2016-03-22 21:30;10
2016-03-22 21:45;12,4
2016-03-22 22:00;15,05
2016-03-22 22:15;12,65
2016-03-22 22:30;1
2016-03-22 22:45;0
2016-03-22 23:00;0,05
2016-03-22 23:15;0,05
2016-03-22 23:30;0,1
2016-03-22 23:45;0,55
2016-03-23 00:00;0
2016-03-23 00:15;0
2016-03-23 00:30;0
2016-03-23 00:45;0
2016-03-23 01:00;0
2016-03-23 01:15;0
2016-03-23 01:30;0
2016-03-23 01:45;9,2
2016-03-23 02:00;5,5
2016-03-23 02:15;0,25
2016-03-23 02:30;0
2016-03-23 02:45;0,3
2016-03-23 03:00;0,55
2016-03-23 03:15;0,35
2016-03-23 03:30;0,7
2016-03-23 03:45;1
2016-03-23 04:00;1,05
2016-03-23 04:15;0,25
2016-03-23 04:30;0,5
2016-03-23 04:45;0,15
2016-03-23 05:00;0,15
2016-03-23 05:15;0,25
2016-03-23 05:30;0,9
2016-03-23 05:45;1,1
2016-03-23 06:00;2,05
2016-03-23 06:15;10,3
2016-03-23 06:30;17,8
2016-03-23 06:45;21,15
2016-03-23 07:00;11,5
2016-03-23 07:15;12,65
2016-03-23 07:30;11,45
2016-03-23 07:45;10,55
2016-03-23 08:00;15,95
2016-03-23 08:15;13,8
2016-03-23 08:30;14,25
2016-03-23 08:45;15,3
2016-03-23 09:00;19,7
2016-03-23 09:15;22,75
2016-03-23 09:30;30,5
2016-03-23 09:45;33,05
2016-03-23 10:00;39,95
2016-03-23 10:15;33,7
2016-03-23 10:30;35,95
2016-03-23 10:45;39,15
2016-03-23 11:00;44,5
2016-03-23 11:15;43,85
2016-03-23 11:30;42,8
2016-03-23 11:45;46,5
2016-03-23 12:00;50,2
2016-03-23 12:15;54,4
2016-03-23 12:30;54,75
2016-03-23 12:45;58,55
2016-03-23 13:00;61,1
2016-03-23 13:15;58,45
2016-03-23 13:30;48,65
2016-03-23 13:45;45,05
2016-03-23 14:00;48,8
2016-03-23 14:15;47,55
2016-03-23 14:30;47,1
2016-03-23 14:45;44,45
2016-03-23 15:00;41,4
2016-03-23 15:15;41,9
2016-03-23 15:30;40,5
2016-03-23 15:45;40,7
2016-03-23 16:00;38,95
2016-03-23 16:15;37,25
2016-03-23 16:30;40,4
2016-03-23 16:45;44,75
2016-03-23 17:00;38,3
2016-03-23 17:15;37,5
2016-03-23 17:30;36,5
2016-03-23 17:45;28,6
2016-03-23 18:00;31,3
2016-03-23 18:15;27,25
2016-03-23 18:30;25
2016-03-23 18:45;19,25
2016-03-23 19:00;23,45
2016-03-23 19:15;17,85
2016-03-23 19:30;28,05
2016-03-23 19:45;34,65
2016-03-23 20:00;36,75
2016-03-23 20:15;28,8
2016-03-23 20:30;19,6
2016-03-23 20:45;16,8
2016-03-23 21:00;15,05
2016-03-23 21:15;12,15
2016-03-23 21:30;9,4
2016-03-23 21:45;9,5
2016-03-23 22:00;9,2
2016-03-23 22:15;5
2016-03-23 22:30;0,2
2016-03-23 22:45;1,45
2016-03-23 23:00;0,05
2016-03-23 23:15;0
2016-03-23 23:30;0
2016-03-23 23:45;0
2016-03-24 00:00;0
2016-03-24 00:15;0
2016-03-24 00:30;0
2016-03-24 00:45;0,1
2016-03-24 01:00;0,05
2016-03-24 01:15;0,4
2016-03-24 01:30;0,05
2016-03-24 01:45;0,2
2016-03-24 02:00;0,05
2016-03-24 02:15;0,55
2016-03-24 02:30;15,05
2016-03-24 02:45;7,75
2016-03-24 03:00;0,5
2016-03-24 03:15;0,05
2016-03-24 03:30;0
2016-03-24 03:45;0,1
2016-03-24 04:00;0,4
2016-03-24 04:15;0,4
2016-03-24 04:30;0,9
2016-03-24 04:45;0,25
2016-03-24 05:00;0,55
2016-03-24 05:15;0,1
2016-03-24 05:30;0
2016-03-24 05:45;0
2016-03-24 06:00;1,05
2016-03-24 06:15;4,6
2016-03-24 06:30;5,2
2016-03-24 06:45;4,6
2016-03-24 07:00;3,3
2016-03-24 07:15;12,8
2016-03-24 07:30;11,65
2016-03-24 07:45;20
2016-03-24 08:00;19,5
2016-03-24 08:15;17,65
2016-03-24 08:30;18,85
2016-03-24 08:45;23,2
2016-03-24 09:00;30
2016-03-24 09:15;32,15
2016-03-24 09:30;32,6
2016-03-24 09:45;34,6
2016-03-24 10:00;32,4
2016-03-24 10:15;34,7
2016-03-24 10:30;35,35
2016-03-24 10:45;35
2016-03-24 11:00;37,05
2016-03-24 11:15;31,75
2016-03-24 11:30;31,55
2016-03-24 11:45;32,4
2016-03-24 12:00;31,6
2016-03-24 12:15;34
2016-03-24 12:30;34,1
2016-03-24 12:45;31,1
2016-03-24 13:00;30,55
2016-03-24 13:15;33,15
2016-03-24 13:30;31,45
2016-03-24 13:45;32,35
2016-03-24 14:00;34,65
2016-03-24 14:15;33,25
2016-03-24 14:30;33,95
2016-03-24 14:45;36,45
2016-03-24 15:00;33,1
2016-03-24 15:15;34,5
2016-03-24 15:30;34,6
2016-03-24 15:45;31,4
2016-03-24 16:00;32,25
2016-03-24 16:15;36
2016-03-24 16:30;37,5
2016-03-24 16:45;36,65
2016-03-24 17:00;37
2016-03-24 17:15;35,7
2016-03-24 17:30;31,6
2016-03-24 17:45;29,25
2016-03-24 18:00;29,15
2016-03-24 18:15;28,55
2016-03-24 18:30;26,85
2016-03-24 18:45;19,6
2016-03-24 19:00;20,65
2016-03-24 19:15;18,05
2016-03-24 19:30;23,3
2016-03-24 19:45;21,35
2016-03-24 20:00;18,15
2016-03-24 20:15;19,2
2016-03-24 20:30;20,8
2016-03-24 20:45;17,75
2016-03-24 21:00;14,45
2016-03-24 21:15;13,1
2016-03-24 21:30;10,55
2016-03-24 21:45;9,7
2016-03-24 22:00;8
2016-03-24 22:15;11,8
2016-03-24 22:30;7,05
2016-03-24 22:45;4,75
2016-03-24 23:00;7,65
2016-03-24 23:15;3,3
2016-03-24 23:30;0,05
2016-03-24 23:45;0
2016-03-25 00:00;0,05
2016-03-25 00:15;0,15
2016-03-25 00:30;0,1
2016-03-25 00:45;0,3
2016-03-25 01:00;0,5
2016-03-25 01:15;0
2016-03-25 01:30;0
2016-03-25 01:45;0
2016-03-25 02:00;0
2016-03-25 02:15;0
2016-03-25 02:30;0
2016-03-25 02:45;1,05
2016-03-25 03:00;7,7
2016-03-25 03:15;2,85
2016-03-25 03:30;0,35
2016-03-25 03:45;0,1
2016-03-25 04:00;0,2
2016-03-25 04:15;0,05
2016-03-25 04:30;0
2016-03-25 04:45;0,05
2016-03-25 05:00;0
2016-03-25 05:15;0
2016-03-25 05:30;0,05
2016-03-25 05:45;0,15
2016-03-25 06:00;0,05
2016-03-25 06:15;1,65
2016-03-25 06:30;5,45
2016-03-25 06:45;6,85
2016-03-25 07:00;5,8
2016-03-25 07:15;14
2016-03-25 07:30;11,3
2016-03-25 07:45;14,35
2016-03-25 08:00;15,7
2016-03-25 08:15;14,4
2016-03-25 08:30;13,25
2016-03-25 08:45;11,65
2016-03-25 09:00;10,55
2016-03-25 09:15;10,05
2016-03-25 09:30;9,95
2016-03-25 09:45;10,15
2016-03-25 10:00;12,15
2016-03-25 10:15;18,3
2016-03-25 10:30;14,65
2016-03-25 10:45;17,75
2016-03-25 11:00;15,4
2016-03-25 11:15;21,45
2016-03-25 11:30;17,75
2016-03-25 11:45;19,4
2016-03-25 12:00;17,8
2016-03-25 12:15;18,25
2016-03-25 12:30;21,65
2016-03-25 12:45;20,25
2016-03-25 13:00;15,65
2016-03-25 13:15;16,2
2016-03-25 13:30;13,9
2016-03-25 13:45;11,5
2016-03-25 14:00;6,35
2016-03-25 14:15;9,35
2016-03-25 14:30;11,7
2016-03-25 14:45;12,7
2016-03-25 15:00;8,7
2016-03-25 15:15;15,8
2016-03-25 15:30;10,05
2016-03-25 15:45;13,5
2016-03-25 16:00;14,8
2016-03-25 16:15;15,15
2016-03-25 16:30;13,65
2016-03-25 16:45;14,25
2016-03-25 17:00;10,9
2016-03-25 17:15;13,95
2016-03-25 17:30;10,95
2016-03-25 17:45;9,4
2016-03-25 18:00;6,5
2016-03-25 18:15;7,8
2016-03-25 18:30;7,05
2016-03-25 18:45;11,3
2016-03-25 19:00;10,65
2016-03-25 19:15;7,4
2016-03-25 19:30;9,6
2016-03-25 19:45;7,95
2016-03-25 20:00;8,9
2016-03-25 20:15;9,6
2016-03-25 20:30;9,2
2016-03-25 20:45;8,45
2016-03-25 21:00;7,85
2016-03-25 21:15;9,65
2016-03-25 21:30;8,95
2016-03-25 21:45;6,55
2016-03-25 22:00;0,15
2016-03-25 22:15;0
2016-03-25 22:30;0
2016-03-25 22:45;0,05
2016-03-25 23:00;0
2016-03-25 23:15;0
2016-03-25 23:30;0
2016-03-25 23:45;0
2016-03-26 00:00;0
2016-03-26 00:15;0
2016-03-26 00:30;0
2016-03-26 00:45;0
2016-03-26 01:00;0
2016-03-26 01:15;0
2016-03-26 01:30;0
2016-03-26 01:45;0
2016-03-26 02:00;0
2016-03-26 02:15;0
2016-03-26 02:30;0
2016-03-26 02:45;0
2016-03-26 03:00;0
2016-03-26 03:15;0
2016-03-26 03:30;0
2016-03-26 03:45;0
2016-03-26 04:00;0
2016-03-26 04:15;0
2016-03-26 04:30;0
2016-03-26 04:45;0
2016-03-26 05:00;0
2016-03-26 05:15;0
2016-03-26 05:30;0
2016-03-26 05:45;0
2016-03-26 06:00;0
2016-03-26 06:15;0
2016-03-26 06:30;0
2016-03-26 06:45;0
2016-03-26 07:00;0
2016-03-26 07:15;0
2016-03-26 07:30;0
2016-03-26 07:45;0
2016-03-26 08:00;0
2016-03-26 08:15;0
2016-03-26 08:30;0
2016-03-26 08:45;0
2016-03-26 09:00;0
2016-03-26 09:15;0
2016-03-26 09:30;0
2016-03-26 09:45;0
2016-03-26 10:00;0
2016-03-26 10:15;0
2016-03-26 10:30;0
2016-03-26 10:45;0
2016-03-26 11:00;0
2016-03-26 11:15;0
2016-03-26 11:30;0
2016-03-26 11:45;0
2016-03-26 12:00;0
2016-03-26 12:15;0,1
2016-03-26 12:30;0
2016-03-26 12:45;0
2016-03-26 13:00;0
2016-03-26 13:15;0
2016-03-26 13:30;0
2016-03-26 13:45;0
2016-03-26 14:00;0
2016-03-26 14:15;0
2016-03-26 14:30;0
2016-03-26 14:45;0
2016-03-26 15:00;0
2016-03-26 15:15;0,1
2016-03-26 15:30;0
2016-03-26 15:45;0
2016-03-26 16:00;0
2016-03-26 16:15;0
2016-03-26 16:30;0,05
2016-03-26 16:45;0,05
2016-03-26 17:00;0,15
2016-03-26 17:15;0
2016-03-26 17:30;0,05
2016-03-26 17:45;0,05
2016-03-26 18:00;0
2016-03-26 18:15;0
2016-03-26 18:30;0,05
2016-03-26 18:45;0,1
2016-03-26 19:00;0
2016-03-26 19:15;0,05
2016-03-26 19:30;0
2016-03-26 19:45;0
2016-03-26 20:00;0
2016-03-26 20:15;0
2016-03-26 20:30;0
2016-03-26 20:45;0,15
2016-03-26 21:00;0,3
2016-03-26 21:15;0,1
2016-03-26 21:30;1,1
2016-03-26 21:45;0,2
2016-03-26 22:00;0,1
2016-03-26 22:15;0,05
2016-03-26 22:30;0,25
2016-03-26 22:45;0,15
2016-03-26 23:00;0,15
2016-03-26 23:15;0,05
2016-03-26 23:30;0,05
2016-03-26 23:45;0
2016-03-27 00:00;0
2016-03-27 00:15;0
2016-03-27 00:30;0
2016-03-27 00:45;0
2016-03-27 01:00;0
2016-03-27 01:15;0
2016-03-27 01:30;0
2016-03-27 01:45;0
2016-03-27 02:00;0
2016-03-27 02:15;0
2016-03-27 02:30;0
2016-03-27 02:45;0
2016-03-27 03:00;0
2016-03-27 03:15;0
2016-03-27 03:30;0
2016-03-27 03:45;0
2016-03-27 04:00;0
2016-03-27 04:15;0
2016-03-27 04:30;0
2016-03-27 04:45;0
2016-03-27 05:00;0
2016-03-27 05:15;0
2016-03-27 05:30;0,1
2016-03-27 05:45;0
2016-03-27 06:00;0
2016-03-27 06:15;0
2016-03-27 06:30;0
2016-03-27 06:45;0
2016-03-27 07:00;0
2016-03-27 07:15;0
2016-03-27 07:30;0
2016-03-27 07:45;0
2016-03-27 08:00;0
2016-03-27 08:15;0
2016-03-27 08:30;0
2016-03-27 08:45;0
2016-03-27 09:00;0
2016-03-27 09:15;0
2016-03-27 09:30;0
2016-03-27 09:45;0
2016-03-27 10:00;0
2016-03-27 10:15;0
2016-03-27 10:30;0
2016-03-27 10:45;0
2016-03-27 11:00;0
2016-03-27 11:15;0
2016-03-27 11:30;0
2016-03-27 11:45;0,05
2016-03-27 12:00;0
2016-03-27 12:15;0
2016-03-27 12:30;0
2016-03-27 12:45;0
2016-03-27 13:00;0
2016-03-27 13:15;0
2016-03-27 13:30;0
2016-03-27 13:45;0
2016-03-27 14:00;0
2016-03-27 14:15;0
2016-03-27 14:30;0
2016-03-27 14:45;0
2016-03-27 15:00;0
2016-03-27 15:15;0
2016-03-27 15:30;0
2016-03-27 15:45;0
2016-03-27 16:00;0
2016-03-27 16:15;0
2016-03-27 16:30;0
2016-03-27 16:45;0,05
2016-03-27 17:00;0
2016-03-27 17:15;0,05
2016-03-27 17:30;0,05
2016-03-27 17:45;0
2016-03-27 18:00;0,1
2016-03-27 18:15;0
2016-03-27 18:30;0
2016-03-27 18:45;0
2016-03-27 19:00;0
2016-03-27 19:15;0
2016-03-27 19:30;0
2016-03-27 19:45;0
2016-03-27 20:00;0
2016-03-27 20:15;0
2016-03-27 20:30;0
2016-03-27 20:45;0
2016-03-27 21:00;0
2016-03-27 21:15;0
2016-03-27 21:30;0
2016-03-27 21:45;0
2016-03-27 22:00;0
2016-03-27 22:15;0
2016-03-27 22:30;0
2016-03-27 22:45;0
2016-03-27 23:00;0
2016-03-27 23:15;0
2016-03-27 23:30;0
2016-03-27 23:45;0,05

